Wichita Jabara, KS

3:37 PM CDT on July 25, 2017 (GMT -0500)
Col Jabara

Weather History for KAAO - July, 2013

Change the Weather History Date:

Wednesday, July 24, 2013

  Actual Average (KIAB) Record (KIAB)
Temperature  
Mean Temperature 78 °F -  
Max Temperature 89 °F 88 °F 105 °F (2011)
Min Temperature 69 °F 68 °F 51 °F (2006)
Cooling Degree Days 14    
Growing Degree Days 28 (Base 50)    
Moisture  
Dew Point 67 °F    
Average Humidity 74    
Maximum Humidity 100    
Minimum Humidity 39    
Precipitation  
Precipitation 0.02 in - - ()
Sea Level Pressure  
Sea Level Pressure 29.98 in    
Wind  
Wind Speed 8 mph (NNE)    
Max Wind Speed 14 mph    
Max Gust Speed 22 mph    
Visibility 10 miles    
Events Rain    
Averages and records for this station are not official NWS values.
T = Trace of Precipitation, MM = Missing Value Source: NWS Daily Summary

Daily Weather History Graph

Daily Weather History Graph

Search for Another Location

Airport or City:

Trip Planner

Search our weather history database for the weather conditions in past years. The results will help you decide how hot, cold, wet, or windy it might be!

Date:

Astronomy

Jul. 24, 2013 Rise Set
Actual Time 6:26 AM CDT 8:44 PM CDT
Civil Twilight 5:56 AM CDT 9:13 PM CDT
Nautical Twilight 5:19 AM CDT 9:50 PM CDT
Astronomical Twilight 4:39 AM CDT 10:30 PM CDT
Moon 9:55 PM CDT (7/24) 8:44 AM CDT (7/24)
Length of Visible Light 15h 17m
Length of Day
14h 18m
Waning Gibbous, 94% of the Moon is Illuminated
Jul 24
Waning Gibbous
Jul 29
Last Quarter
Aug 6
New
Aug 14
First Quarter
Aug 20
Full

Hourly Weather History & Observations

Time (CDT) Temp. Heat Index Dew Point Humidity Pressure Visibility Wind Dir Wind Speed Gust Speed Precip Events Conditions
12:17 AM 69.8 °F - 69.8 °F 100% 29.92 in 10.0 mi NE 8.1 mph - 0.02 in Rain Light Rain
12:54 AM 71.1 °F - 71.1 °F 100% 29.89 in 10.0 mi NE 5.8 mph - 0.02 in Rain Light Rain
1:54 AM 72.0 °F - 71.1 °F 97% 29.88 in 10.0 mi NNE 10.4 mph - 0.00 in   Clear
2:54 AM 72.0 °F - 70.0 °F 93% 29.90 in 10.0 mi NNE 12.7 mph - N/A   Clear
3:54 AM 71.1 °F - 69.1 °F 93% 29.90 in 10.0 mi NE 6.9 mph - N/A   Clear
4:54 AM 70.0 °F - 68.0 °F 93% 29.91 in 10.0 mi NNE 10.4 mph - N/A   Clear
5:54 AM 69.1 °F - 68.0 °F 96% 29.95 in 10.0 mi ENE 3.5 mph - N/A   Mostly Cloudy
6:54 AM 69.1 °F - 66.9 °F 93% 29.99 in 10.0 mi NE 6.9 mph - N/A   Overcast
7:50 AM 69.8 °F - 66.2 °F 88% 30.04 in 10.0 mi NE 10.4 mph - N/A   Mostly Cloudy
7:54 AM 69.1 °F - 66.0 °F 90% 30.00 in 10.0 mi NNE 10.4 mph - N/A   Mostly Cloudy
8:54 AM 72.0 °F - 66.9 °F 84% 30.00 in 10.0 mi ENE 4.6 mph - N/A   Clear
9:54 AM 75.9 °F - 68.0 °F 76% 30.02 in 10.0 mi North 3.5 mph - N/A   Scattered Clouds
10:08 AM 75.2 °F - 68.0 °F 78% 30.05 in 10.0 mi North 4.6 mph - N/A   Mostly Cloudy
10:18 AM 75.2 °F - 68.0 °F 78% 30.05 in 10.0 mi NNW 4.6 mph - N/A   Mostly Cloudy
10:32 AM 77.0 °F - 66.2 °F 69% 30.05 in 10.0 mi Variable 4.6 mph - N/A   Partly Cloudy
10:54 AM 78.1 °F - 68.0 °F 71% 30.02 in 10.0 mi NNW 6.9 mph - N/A   Clear
11:54 AM 81.0 °F 84.1 °F 69.1 °F 67% 30.01 in 10.0 mi North 6.9 mph - N/A   Clear
12:54 PM 84.9 °F 89.4 °F 70.0 °F 61% 30.00 in 10.0 mi North 9.2 mph - N/A   Clear
1:54 PM 87.1 °F 92.0 °F 70.0 °F 57% 29.99 in 10.0 mi North 13.8 mph 21.9 mph N/A   Clear
2:54 PM 87.1 °F 90.6 °F 68.0 °F 53% 29.98 in 10.0 mi NNE 10.4 mph - N/A   Clear
3:54 PM 88.0 °F 90.3 °F 66.0 °F 48% 29.97 in 10.0 mi NNE 8.1 mph 18.4 mph N/A   Clear
4:54 PM 88.0 °F 88.7 °F 63.0 °F 43% 29.96 in 10.0 mi NE 11.5 mph - N/A   Clear
5:54 PM 87.1 °F 86.5 °F 59.0 °F 39% 29.96 in 10.0 mi NE 11.5 mph - N/A   Clear
6:54 PM 86.0 °F 86.1 °F 61.0 °F 43% 29.96 in 10.0 mi ENE 11.5 mph - N/A   Clear
7:54 PM 82.9 °F 83.3 °F 61.0 °F 47% 29.98 in 10.0 mi ENE 6.9 mph - N/A   Clear
8:54 PM 75.9 °F - 63.0 °F 64% 29.98 in 10.0 mi ENE 5.8 mph - N/A   Clear
9:54 PM 73.9 °F - 63.0 °F 68% 29.99 in 10.0 mi East 3.5 mph - N/A   Clear
10:54 PM 73.9 °F - 62.1 °F 66% 30.01 in 10.0 mi Calm Calm - N/A   Clear
11:54 PM 70.0 °F - 63.0 °F 78% 30.02 in 10.0 mi Calm Calm - N/A   Clear